Lexington, KY

5:16 PM EDT on May 24, 2017 (GMT -0400)
Blue Grass

Weather History for KLEX - September, 2012

Change the Weather History Date:

Saturday, September 8, 2012

  Actual Average Record
Temperature  
Mean Temperature 68 °F 71 °F  
Max Temperature 78 °F 82 °F 101 °F (1939)
Min Temperature 58 °F 61 °F 45 °F (1956)
Degree Days  
Heating Degree Days 0 0  
Month to date heating degree days 0 0  
Since 1 July heating degree days 0 2  
Cooling Degree Days 3 7  
Month to date cooling degree days 92 60  
Year to date cooling degree days 1320 1077  
Growing Degree Days 19 (Base 50)    
Moisture  
Dew Point 62 °F    
Average Humidity 77    
Maximum Humidity 100    
Minimum Humidity 53    
Precipitation  
Precipitation 0.85 in 0.10 in 1.42 in (1929)
Month to date precipitation 2.65 0.74  
Year to date precipitation 30.26 32.41  
Snow  
Snow 0.00 in 0.00 in - ()
Month to date snowfall 0.0 0.0  
Since 1 July snowfall 0.0 0.0  
Since 1 September snowfall 0.0 0.0  
Snow Depth 0.00 in    
Sea Level Pressure  
Sea Level Pressure 29.81 in    
Wind  
Wind Speed 7 mph (WNW)    
Max Wind Speed 29 mph    
Max Gust Speed 45 mph    
Visibility 8 miles    
Events Rain    
T = Trace of Precipitation, MM = Missing Value Source: NWS Daily Summary

Daily Weather History Graph

Daily Weather History Graph

Search for Another Location

Airport or City:

Trip Planner

Search our weather history database for the weather conditions in past years. The results will help you decide how hot, cold, wet, or windy it might be!

Date:

Astronomy

Sep. 08, 2012 Rise Set
Actual Time 7:14 AM EDT 7:56 PM EDT
Civil Twilight 6:47 AM EDT 8:23 PM EDT
Nautical Twilight 6:16 AM EDT 8:54 PM EDT
Astronomical Twilight 5:44 AM EDT 9:26 PM EDT
Moon 12:00 AM EDT (9/8) 2:48 PM EDT (9/8)
Length of Visible Light 13h 35m
Length of Day
12h 41m
Waning Gibbous, 49% of the Moon is Illuminated
Sep 8
Waning Gibbous
Sep 15
New
Sep 22
First Quarter
Sep 29
Full
Oct 8
Last Quarter

Hourly Weather History & Observations

Time (EDT) Temp. Dew Point Humidity Pressure Visibility Wind Dir Wind Speed Gust Speed Precip Events Conditions
12:54 AM 78.1 °F 69.1 °F 74% 29.69 in 10.0 mi South 12.7 mph - N/A   Partly Cloudy
1:34 AM 71.6 °F 64.4 °F 78% 29.79 in 10.0 mi NW 15.0 mph 44.9 mph 0.00 in Rain Light Rain
1:54 AM 68.0 °F 66.0 °F 93% 29.77 in 4.0 mi NW 15.0 mph 23.0 mph 0.02 in Rain Heavy Rain
1:58 AM 66.2 °F 66.2 °F 100% 29.80 in 1.8 mi WNW 11.5 mph - 0.06 in Rain Heavy Rain
2:03 AM 66.2 °F 66.2 °F 100% 29.80 in 1.5 mi NW 6.9 mph - 0.16 in Rain Heavy Rain
2:08 AM 66.2 °F 66.2 °F 100% 29.79 in 3.0 mi WNW 6.9 mph - N/A Rain Rain
2:12 AM 66.2 °F 66.2 °F 100% 29.79 in 5.0 mi WNW 8.1 mph - 0.20 in Rain Light Rain
2:27 AM 66.2 °F 66.2 °F 100% 29.78 in 6.0 mi West 6.9 mph - 0.21 in Rain Rain
2:36 AM 66.2 °F 66.2 °F 100% 29.77 in 4.0 mi West 10.4 mph - 0.24 in Rain Heavy Rain
2:54 AM 66.9 °F 66.0 °F 97% 29.74 in 7.0 mi West 11.5 mph - 0.29 in Rain Rain
3:54 AM 66.9 °F 66.0 °F 97% 29.72 in 10.0 mi SW 5.8 mph - 0.06 in Rain Light Rain
4:54 AM 66.9 °F 66.0 °F 97% 29.70 in 10.0 mi SSW 9.2 mph - 0.04 in Rain Light Rain
5:35 AM 66.2 °F 66.2 °F 100% 29.72 in 10.0 mi South 8.1 mph - 0.02 in   Overcast
5:43 AM 66.2 °F 66.2 °F 100% 29.72 in 10.0 mi South 8.1 mph - 0.02 in   Overcast
5:54 AM 66.9 °F 66.9 °F 100% 29.69 in 10.0 mi South 8.1 mph - 0.02 in   Overcast
6:41 AM 68.0 °F 66.2 °F 94% 29.71 in 10.0 mi SSW 10.4 mph - N/A   Overcast
6:51 AM 68.0 °F 66.2 °F 94% 29.71 in 10.0 mi SSW 11.5 mph - 0.00 in Rain Light Rain
6:54 AM 68.0 °F 66.9 °F 96% 29.68 in 10.0 mi SSW 11.5 mph - 0.00 in Rain Light Rain
7:06 AM 68.0 °F 66.2 °F 94% 29.72 in 2.0 mi SW 8.1 mph - 0.00 in Rain Light Rain
7:54 AM 68.0 °F 66.9 °F 96% 29.71 in 1.0 mi WSW 8.1 mph - 0.04 in Rain Rain
7:57 AM 68.0 °F 66.2 °F 94% 29.74 in 1.0 mi West 8.1 mph - 0.00 in Rain Light Rain
8:19 AM 62.6 °F 60.8 °F 94% 29.79 in 1.0 mi NW 17.3 mph 27.6 mph 0.21 in Rain Rain
8:54 AM 61.0 °F 60.1 °F 97% 29.78 in 1.0 mi NNW 13.8 mph - 0.35 in Rain Rain
9:01 AM 60.8 °F 60.8 °F 100% 29.80 in 5.0 mi NNW 12.7 mph - 0.01 in Rain Rain
9:14 AM 60.8 °F 60.8 °F 100% 29.80 in 8.0 mi NNW 11.5 mph - 0.03 in Rain Light Rain
9:54 AM 62.1 °F 60.1 °F 93% 29.82 in 10.0 mi North 11.5 mph 19.6 mph 0.03 in   Overcast
10:54 AM 62.1 °F 57.9 °F 86% 29.87 in 10.0 mi North 8.1 mph - 0.00 in Rain Light Rain
11:01 AM 62.6 °F 57.2 °F 82% 29.88 in 10.0 mi North 10.4 mph - 0.00 in Rain Light Rain
11:54 AM 63.0 °F 59.0 °F 87% 29.89 in 10.0 mi WNW 6.9 mph - 0.00 in   Scattered Clouds
12:51 PM 64.4 °F 60.8 °F 88% 29.91 in 10.0 mi NW 8.1 mph - N/A   Mostly Cloudy
12:54 PM 64.9 °F 59.0 °F 81% 29.89 in 10.0 mi WNW 9.2 mph - N/A   Mostly Cloudy
1:01 PM 64.4 °F 57.2 °F 77% 29.92 in 10.0 mi NW 6.9 mph - N/A   Scattered Clouds
1:16 PM 64.4 °F 57.2 °F 77% 29.92 in 10.0 mi NW 6.9 mph - N/A   Mostly Cloudy
1:54 PM 66.0 °F 57.9 °F 75% 29.90 in 10.0 mi NNW 9.2 mph - N/A   Mostly Cloudy
2:22 PM 69.8 °F 57.2 °F 64% 29.90 in 10.0 mi North 8.1 mph - N/A   Scattered Clouds
2:54 PM 70.0 °F 57.9 °F 65% 29.88 in 10.0 mi NW 11.5 mph - N/A   Clear
3:54 PM 70.0 °F 55.0 °F 59% 29.87 in 10.0 mi WNW 9.2 mph - N/A   Mostly Cloudy
4:54 PM 71.1 °F 54.0 °F 55% 29.86 in 10.0 mi NNW 6.9 mph - N/A   Overcast
5:54 PM 70.0 °F 54.0 °F 57% 29.86 in 10.0 mi West 6.9 mph - N/A   Scattered Clouds
6:54 PM 70.0 °F 54.0 °F 57% 29.87 in 10.0 mi NNW 4.6 mph - N/A   Overcast
7:54 PM 68.0 °F 55.9 °F 65% 29.88 in 10.0 mi Calm Calm - N/A   Mostly Cloudy
8:54 PM 64.0 °F 53.1 °F 67% 29.90 in 10.0 mi WNW 4.6 mph - N/A   Scattered Clouds
9:54 PM 63.0 °F 53.1 °F 70% 29.92 in 10.0 mi Calm Calm - N/A   Clear
10:54 PM 61.0 °F 53.1 °F 75% 29.94 in 10.0 mi Calm Calm - N/A   Clear
11:54 PM 59.0 °F 53.1 °F 81% 29.96 in 10.0 mi Calm Calm - N/A   Clear